Location: ??? ????????
(41.2654°N, 22.8431°E)
Time: 14:40:53
(UTC+00:00)

Daily predictions for brighter satellites

Satellite Brightness Start Highest point End
(mag) Time Altitude Azimuth Time Altitude Azimuth Time Altitude Azimuth
PSLV R/B 3.7 18:26:35 10° SSE 18:30:01 55° ENE 18:33:32 10° N
Cosmos 1607 4.1 18:25:59 10° NW 18:32:23 81° WSW 18:38:36 10° SSE
Cosmos 1892 2.5 18:29:28 10° S 18:32:59 89° W 18:36:33 10° N
Feng Yun 1-1 Rocket 4.4 18:28:15 10° S 18:33:45 79° WSW 18:39:11 10° NNW
Cosmos 1709 Rocket 4.5 18:29:18 10° SSW 18:35:30 66° W 18:41:40 10° N
USA 215 3.6 18:29:32 10° ESE 18:35:58 62° NE 18:42:26 10° NW
SPOT 5 3.7 18:31:51 10° SE 18:36:18 37° ENE 18:40:59 10° N
NOSS 2-3 (D) 4.2 18:34:54 10° S 18:37:59 25° ESE 18:41:07 10° ENE
Cosmos 2112 Rocket 4.0 18:35:40 10° NNW 18:40:55 76° ENE 18:46:10 10° SSE
Cosmos 921 Rocket 4.4 18:38:21 10° NNE 18:41:39 22° ENE 18:44:58 10° ESE
ISS -1.2 18:39:24 10° WNW 18:42:10 24° NNW 18:44:56 10° NE
Cosmos 1328 3.7 18:42:41 10° S 18:46:27 61° E 18:50:13 10° NNE
Cosmos 724 4.4 18:40:42 10° NW 18:46:34 80° WSW 18:52:27 10° SSE
OAO 2 Rocket 4.3 18:43:35 10° WSW 18:48:15 35° SSW 18:52:42 11° SE
USA 186 3.9 18:45:51 10° SSW 18:48:28 25° W 18:51:03 10° NW
Cosmos 1825 2.6 18:45:19 10° SSW 18:48:38 57° W 18:51:59 10° N
ARGOS Delta rocket 3.8 18:44:15 10° SSE 18:48:51 79° ENE 18:53:46 10° N
Okean-O 2.7 18:45:59 10° SSE 18:50:19 63° ENE 18:54:41 10° N
CZ-4C R/B 3.3 18:56:59 10° NNE 19:00:32 47° E 19:03:55 10° S
NOSS 2-2 (E) 2.8 18:57:51 10° SSW 19:01:17 56° ESE 19:04:20 10° NE
NOSS 2-2 (C) 2.8 18:58:19 10° SW 19:01:42 82° WNW 19:04:47 10° NNE
Cosmos 2084 3.3 19:00:22 10° SSW 19:04:31 65° ESE 19:08:31 10° NE
NOSS 2-3 (E) 3.1 19:03:20 10° SSW 19:06:56 62° ESE 19:10:43 10° NE
USA 276 4.3 19:07:01 10° NW 19:09:15 19° NNE 19:11:31 10° ENE
Nadezhda 3 Rocket 4.3 19:04:35 10° N 19:10:33 50° ENE 19:15:33 15° SSE
Cosmos 2181 Rocket 4.2 19:05:09 10° N 19:11:18 75° W 19:17:29 10° S
Cosmos 1844 4.2 19:07:06 10° SSW 19:12:51 68° WNW 19:18:37 10° NNE
Hubble Space Telescope 2.7 19:14:34 10° SSW 19:16:24 13° S 19:16:52 13° S
Terra 2.2 19:13:56 17° SE 19:17:19 46° ENE 19:21:51 10° N
Meteor 1-21 Rocket 4.1 19:13:56 10° S 19:19:29 82° E 19:25:02 10° NNE
H-II Stage 2 4.1 19:19:16 10° SSW 19:21:58 19° SSE 19:23:25 17° SE
NOSS 2-3 (C) 3.1 19:21:02 10° SW 19:24:39 83° NW 19:28:30 10° NNE
GP-B 3.9 19:27:39 10° N 19:31:55 50° W 19:36:09 10° SSW
Cosmos 1437 Rocket 4.2 19:32:35 19° E 19:32:41 19° E 19:35:16 10° NE
Meteor 2-1 Rocket 4.5 19:27:47 10° N 19:33:17 51° ENE 19:36:35 23° SE
Cosmos 1833 Rocket 4.0 19:28:32 10° N 19:33:21 28° NE 19:36:42 16° ESE
ATLAS CENTAUR R/B 1.8 19:29:58 10° NNW 19:33:53 48° NE 19:35:58 25° ESE
Okean 1 Rocket 4.2 19:30:25 10° NNW 19:34:38 42° W 19:38:50 10° SSW
Cosmos 44 3.7 19:33:50 10° S 19:38:51 45° ESE 19:43:44 10° NE
NOSS 2-2 (D) 3.8 19:35:47 10° SW 19:39:05 48° NW 19:42:08 10° NNE
Cosmos 1975 Rocket 3.0 19:35:44 15° S 19:39:25 79° E 19:43:54 10° N
Cosmos 1455 Rocket 3.0 19:35:34 10° N 19:39:59 89° ESE 19:42:42 23° S
Cosmos 1025 Rocket 4.0 19:36:06 10° SSW 19:40:10 46° WNW 19:44:16 10° N
Lacrosse 5 3.9 19:36:08 10° W 19:40:37 31° NNW 19:45:08 10° NNE
Cosmos 2184 Rocket 4.5 19:34:43 10° SSW 19:41:00 63° W 19:47:18 10° N
ERS-1 Rocket 3.0 19:38:08 19° SSE 19:41:45 84° WSW 19:46:47 10° NNW
Spot 2 Rocket 3.5 19:39:22 23° SSE 19:42:34 72° ENE 19:47:39 10° N
ATLAS 5 CENTAUR R/B 4.5 19:43:39 10° WNW 19:45:38 15° NW 19:47:44 10° N
Cosmos 2278 Rocket 3.3 19:49:27 23° ESE 19:50:09 23° ESE 19:54:32 10° NE
Cosmos 2341 Rocket 4.2 19:48:47 24° SSE 19:52:26 51° E 19:58:32 10° NNE
Cosmos 1339 Rocket 4.4 19:48:59 10° N 19:55:13 72° E 19:58:45 27° SSE
Cosmos 2298 Rocket 4.2 19:53:07 26° SSE 19:55:50 50° ESE 20:00:57 10° NNE
Landsat 5 4.1 19:52:52 10° NNE 19:57:02 41° E 19:57:59 36° SE
Meteor 1-11 4.2 19:53:04 13° S 19:58:14 87° W 20:03:57 10° N
Okean O Rocket 4.3 19:57:33 10° WSW 19:59:15 12° W 20:00:59 10° WNW
Cosmos 1606 2.3 19:59:52 10° N 20:03:26 81° E 20:04:09 54° SSE
Ariane Rocket 3.1 20:07:17 28° S 20:09:56 71° WSW 20:15:01 10° NNW
Cosmos 1536 Rocket 3.9 20:10:07 40° ESE 20:10:41 42° E 20:14:46 10° NNE
Cosmos 1869 3.2 20:10:31 10° N 20:14:21 79° W 20:15:15 50° S
MOS 1 Rocket 4.1 20:11:41 22° SSW 20:14:21 45° W 20:18:42 10° NNW
ATLAS 3B R/B 3.8 20:14:17 25° ESE 20:14:44 25° ESE 20:20:30 10° NE
USA 215 4.0 20:15:52 25° S 20:19:07 40° SW 20:25:13 10° WNW
ISS -0.7 20:18:00 10° NW 20:19:48 14° N 20:21:37 10° NNE
Cosmos 921 Rocket 4.5 20:16:11 10° NW 20:19:49 29° W 20:21:45 20° SW
ARIANE 5 R/B 4.1 20:21:27 23° E 20:22:12 24° ENE 20:25:47 10° NNE
Cosmos 2098 4.5 20:25:19 69° S 20:25:44 88° W 20:29:00 10° N
Cosmos 1943 Rocket 3.1 20:26:53 29° ESE 20:26:53 29° ESE 20:31:38 10° NE
Cosmos 1821 Rocket 4.5 20:25:12 35° SE 20:27:02 44° E 20:32:59 10° NNE
Cosmos 2228 2.8 20:26:45 10° N 20:30:57 87° ENE 20:31:33 65° SSE
Cosmos 2150 Rocket 4.3 20:34:01 22° SSW 20:37:30 71° WNW 20:42:57 10° NNE
NOSS 3-1 (C) 2.8 20:37:12 37° SSW 20:39:07 81° SE 20:44:43 10° NE
USA 276 3.4 20:40:48 10° NW 20:42:48 38° NW 20:42:48 38° NW
SeaSat 1 4.2 20:47:14 18° E 20:49:05 23° NE 20:52:51 10° N
Cosmos 2366 rocket 4.1 20:45:59 31° SSW 20:49:06 71° W 20:55:15 10° N
Terra 4.0 20:52:39 13° SW 20:55:07 18° W 20:58:20 10° NW
BREEZE-M DEB (TANK) 4.3 20:54:10 10° WNW 20:58:10 78° SSW 21:03:15 31° SE
Cosmos 1812 4.2 21:00:16 10° NNE 21:02:28 27° NE 21:02:28 27° NE
Cosmos 1892 Rocket 4.1 21:08:00 48° ENE 21:08:00 48° ENE 21:11:48 10° NNE
PSLV R/B 4.5 21:05:48 10° NNE 21:08:54 48° NE 21:08:54 48° NE
Meteor 2-13 Rocket 4.4 21:04:15 10° N 21:10:27 88° W 21:11:57 55° S
ATLAS CENTAUR R/B 3.5 21:08:36 10° WNW 21:10:52 16° WSW 21:10:52 16° WSW
Cosmos 2239 Rocket 4.4 21:10:55 55° SSE 21:12:09 68° E 21:18:19 10° NNE
SL-08 R/B 4.4 21:12:45 56° SSE 21:13:53 69° E 21:19:58 10° NNE
NOSS 3-1 (A) 2.8 21:16:36 71° ESE 21:16:36 71° ESE 21:22:04 10° NE
Cosmos 1833 Rocket 3.3 21:12:04 10° NW 21:17:24 44° WSW 21:18:22 40° SW
Cosmos 2123 Rocket 4.4 21:15:56 10° N 21:22:00 48° ENE 21:23:11 43° ESE
Cosmos 1000 Rocket 4.3 21:20:48 10° N 21:26:59 78° E 21:28:02 62° SSE
Cosmos 1606 Rocket 3.9 21:26:04 10° NNW 21:29:59 58° WNW 21:29:59 58° WNW
Cosmos 2082 Rocket 2.2 21:25:20 10° NNW 21:30:57 66° ENE 21:31:39 60° ESE
Cosmos 1726 Rocket 3.7 21:28:15 10° N 21:32:05 67° NNW 21:32:05 67° NNW
Cosmos 2278 Rocket 2.9 21:31:13 28° WSW 21:33:51 49° WNW 21:39:21 10° NNE
Cosmos 2369 Rocket 3.9 21:37:51 19° E 21:37:51 19° E 21:40:48 10° NE
Cosmos 489 Rocket 4.4 21:39:57 61° SE 21:40:25 62° ESE 21:46:32 10° NNE
H-2A R/B 3.1 21:44:33 49° N 21:44:33 49° N 21:47:26 10° N
USA 229 DEB 4.2 21:44:54 36° E 21:44:54 36° E 21:50:07 10° NE
USA 229 4.2 21:45:03 36° E 21:45:03 36° E 21:50:14 10° NE
ULPM Upper Stage 3.7 21:40:31 10° NNW 21:44:39 40° NE 21:44:39 40° NE
CZ-4C R/B 3.8 21:48:21 10° NNW 21:55:15 46° NE 22:00:34 22° ESE
Cosmos 1934 Rocket 3.9 21:54:43 67° S 21:55:39 89° W 22:01:56 10° N
ISS -1.3 21:54:51 10° NNW 21:57:19 21° NNE 21:57:19 21° NNE
Cosmos 2058 Rocket 3.5 21:53:52 10° N 21:57:25 58° NNW 21:57:25 58° NNW
ARIANE 5 R/B 4.0 21:58:54 31° W 21:58:54 31° W 22:02:25 10° NNW
COSMOS 2406 3.0 21:54:50 10° NNW 22:00:32 89° ENE 22:00:48 82° SSE
Cosmos 1782 4.3 21:57:15 10° N 21:59:39 31° NNE 21:59:39 31° NNE
ATLAS 3B R/B 3.0 22:01:26 35° SW 22:04:45 70° NW 22:12:22 10° NNE
Cosmos 1943 Rocket 3.2 22:08:20 30° WSW 22:10:22 40° WNW 22:15:40 10° N
USA 281 3.4 22:09:48 47° ESE 22:11:32 64° ENE 22:18:01 10° NNW
Meteor 2-19 Rocket 4.3 22:08:58 10° N 22:15:09 86° W 22:15:45 74° S
USA 81 4.1 22:11:17 10° N 22:16:27 70° ENE 22:16:27 70° ENE
ALOS 2 3.4 22:19:19 46° NW 22:19:19 46° NW 22:22:44 10° NNW
Cosmos 2058 4.3 22:19:03 32° WNW 22:19:03 32° WNW 22:22:11 10° N
Meteor 2-3 Rocket 3.6 22:21:26 77° ESE 22:21:34 78° E 22:27:16 10° NNE
Cosmos 1812 Rocket 4.4 22:19:52 10° N 22:23:31 45° NE 22:23:31 45° NE
Cosmos 1602 Rocket 4.3 22:25:39 47° NE 22:25:39 47° NE 22:28:56 10° NNE
Cosmos 1535 Rocket 4.4 22:24:51 67° SW 22:25:33 74° W 22:31:42 10° N
H-2A R/B 3.2 22:22:00 10° NNE 22:24:34 34° NE 22:24:34 34° NE
SeaSat 1 3.0 22:26:56 49° W 22:26:56 49° W 22:31:00 10° NW
Cosmos 407 Rocket 3.4 22:23:38 10° NNW 22:28:37 80° NNE 22:28:37 80° NNE
BREEZE-M DEB (TANK) 3.9 22:12:31 10° SW 22:31:21 76° SSE 22:35:47 10° ENE
Gblst 52 Del rocket 4.2 22:32:25 65° E 22:32:25 65° E 22:37:12 10° ENE
Cosmos 1271 Rocket 4.3 22:33:32 33° NNW 22:33:32 33° NNW 22:35:51 10° N
Okean 1-7 Rocket 4.2 22:33:58 53° NNE 22:33:58 53° NNE 22:37:23 10° N
Cosmos 1605 Rocket 3.8 22:32:33 70° SW 22:33:10 77° W 22:39:19 10° N
USA 234 4.0 22:28:57 10° ENE 22:34:08 35° ESE 22:34:08 35° ESE
Cosmos 1932 4.5 22:31:27 10° NW 22:37:29 60° WSW 22:37:29 60° WSW
Lacrosse 5 rocket 3.4 22:44:25 19° ENE 22:44:25 19° ENE 22:45:41 10° NE
Cosmos 1758 Rocket 4.3 22:43:55 49° NNW 22:43:55 49° NNW 22:47:15 10° N
Cosmos 1241 Rocket 4.4 22:37:12 10° NW 22:43:38 74° WSW 22:44:08 70° SSW
Meteor 1-26 Rocket 4.2 22:38:23 10° N 22:43:55 70° E 22:44:14 68° ESE
Cosmos 2297 3.6 22:46:45 76° WSW 22:47:04 79° WNW 22:52:50 10° NNE
Timation 1 Rocket 4.2 22:44:09 10° NNW 22:50:11 87° ENE 22:50:42 76° SE
Cosmos 2251 Rocket 3.6 22:46:03 10° NNW 22:51:01 68° WNW 22:51:01 68° WNW
Cosmos 1624 Rocket 3.9 22:57:44 80° NE 22:57:44 80° NE 23:02:43 10° NNE
Cosmos 1153 Rocket 4.3 22:57:06 72° SSW 22:57:48 84° W 23:04:06 10° N
SL-8 R/B 4.0 23:00:52 63° NE 23:00:52 63° NE 23:05:01 10° ENE
Cosmos 1447 Rocket 4.4 22:54:47 10° NNW 23:01:02 73° W 23:01:37 67° SW
Cosmos 1954 Rocket 4.1 22:57:39 10° NNW 23:02:48 66° ENE 23:02:58 66° E
Cosmos 1420 Rocket 4.1 23:04:45 66° WNW 23:04:51 66° WNW 23:10:08 10° NNE
Meteor 2-21 4.3 22:59:31 10° N 23:05:42 83° E 23:06:31 68° SSE
CZ-2D R/B 4.4 23:04:09 10° ENE 23:05:54 12° E 23:07:07 11° ESE
Cosmos 2173 Rocket 3.9 23:05:22 62° SE 23:06:06 68° E 23:12:08 10° NNE
CENTAUR R/B 4.2 23:03:09 10° NNW 23:11:01 45° NE 23:19:47 10° ESE
Cosmos 2056 Rocket 3.5 23:11:01 72° WNW 23:11:05 72° WNW 23:16:21 10° NNE
Cosmos 2082 Rocket 4.1 23:10:57 10° WNW 23:13:28 16° W 23:13:28 16° W
Cosmos 1656 Rocket 4.3 23:13:38 41° W 23:14:30 44° WNW 23:19:46 10° NNE
Lacrosse 4 Rocket 2.2 23:20:40 48° N 23:20:40 48° N 23:23:45 10° NNE
Cosmos 2369 Rocket 2.5 23:19:37 51° W 23:20:19 55° WNW 23:25:50 10° NNE
Iridium 4 Rocket 4.0 23:25:53 10° NNW 23:31:29 53° W 23:31:55 51° WSW
BREEZE M DEB (TANK) 4.3 23:15:35 10° WNW 23:31:48 86° SW 23:33:53 40° SE
Cosmos 2263 4.4 23:33:41 53° W 23:34:32 58° WNW 23:40:12 10° NNE
USA 229 DEB 4.4 23:32:18 28° W 23:34:59 42° NW 23:41:22 10° NNE
USA 229 4.4 23:32:27 28° W 23:35:06 42° NW 23:41:29 10° NNE
Cosmos 676 Rocket 3.8 23:31:42 10° NNW 23:36:47 76° W 23:36:47 76° W
Cosmos 1331 Rocket 4.3 23:39:12 52° ESE 23:39:29 53° ESE 23:44:31 10° NNE
CZ-4C R/B 3.3 23:36:40 10° NW 23:43:59 50° WSW 23:45:34 45° SSW
COSMOS 2455 2.9 23:38:29 10° NNW 23:44:33 74° ENE 23:46:54 39° SE
Cosmos 1340 Rocket 3.4 23:41:43 10° N 23:44:46 53° N 23:44:46 53° N
Meteor 2-21 Rocket 4.4 23:40:38 10° NNW 23:46:43 66° W 23:47:39 58° SW
Resurs 1-4 Rocket 3.3 23:42:05 10° NE 23:46:47 31° E 23:48:07 27° ESE
Cosmos 2221 3.6 23:43:51 10° NNW 23:46:52 35° WNW 23:46:52 35° WNW
ADEOS II 3.9 23:48:40 10° NE 23:52:41 22° E 23:54:39 18° ESE
